Regional Weather Roundup
Issued by NWS

Home | Current Version | Previous Version | Graphics & Text | Print | Product List | Glossary On
Versions: 1 2 3 4 5 6 7 8 9 10 11 12 13 14 15 16 17 18 19 20 21 22 23 24 25 26 27 28 29 30 31 32 33 34 35 36 37 38 39 40 41 42 43 44 45 46 47 48 49 50
000
ASUS43 KBIS 201602
RWRND

NORTH DAKOTA REGIONAL WEATHER ROUNDUP
NATIONAL WEATHER SERVICE BISMARCK ND
1100 AM CDT FRI OCT 20 2017

NOTE: "FAIR" INDICATES FEW OR NO CLOUDS BELOW 12,000 FEET WITH NO
SIGNIFICANT WEATHER AND/OR OBSTRUCTIONS TO VISIBILITY.


NDZ001>003-009>011-017-201700-
NORTHWEST NORTH DAKOTA

CITY           SKY/WX    TMP DP  RH WIND       PRES   REMARKS
WILLISTON      MOSUNNY   50  34  54 S5        29.34F
MINOT          SUNNY     55  42  61 SE5       29.36F
MINOT AFB      SUNNY     53  41  63 S9        29.34F
$$

NDZ018>021-031>035-040>046-201700-
SOUTHWEST NORTH DAKOTA

CITY           SKY/WX    TMP DP  RH WIND       PRES   REMARKS
BISMARCK       SUNNY     65  48  54 S9        29.43F
DICKINSON      SUNNY     67  32  27 S8        29.38F
GARRISON         N/A     55  44  66 S16       29.38F
HETTINGER ARPT CLOUDY    63  32  31 S7        29.44F
$$

NDZ004>008-012>016-024-026-027-054-201700-
NORTHEAST NORTH DAKOTA

CITY           SKY/WX    TMP DP  RH WIND       PRES   REMARKS
GRAND FORKS    MOSUNNY   65  51  60 S23G33    29.51F
GRND FRKS AFB  SUNNY     63  49  60 S15G26    29.51F
DEVILS LAKE    SUNNY     58  48  69 SE13      29.46F
$$

NDZ022-023-025-028>030-036>039-047>053-201700-
SOUTHEAST NORTH DAKOTA

CITY           SKY/WX    TMP DP  RH WIND       PRES   REMARKS
FARGO          SUNNY     66  50  56 S16G30    29.57F
JAMESTOWN      SUNNY     61  48  62 S21G31    29.49F
$$





USA.gov is the U.S. government's official web portal to all federal, state and local government web resources and services.